Location: Kumla
(59.1265°N, 15.1401°E)
Time: 15:36:06
(UTC+01:00)

Transit 2A - Pass Details

Date: 05 December 2023
Orbit: 600 x 953 km, 66.7° (Epoch: 21 February)

Event Time Altitude Azimuth Distance (km) Brightness Sun altitude
Rises 21:11:09 0° 302° (WNW) 2,939 9.8 -43.8°
Enters shadow 21:12:36 - 306° (NW) 2,379 9.2 -43.9°
Reaches altitude 10° 21:13:36 10° 310° (NW) 1,997 - -44.0°
Maximum altitude 21:17:48 39° 20° (NNE) 911 - -44.5°
Drops below altitude 10° 21:21:54 10° 91° (E) 1,950 - -44.9°
Sets 21:24:15 0° 99° (E) 2,861 - -45.1°
